START_TIME,STEP,MOV.,P11,t_acc.,P23,t_acc.,P27,t_acc.,A4,t_acc.
1979-03-08 22:23:09.710 ,0,0,1.,4.8,0.,4.8,0.,4.8,0.,4.8
1979-03-08 22:23:14.510 ,0,0,2.,4.8,0.,4.8,0.,4.8,0.,4.8
1979-03-08 22:23:19.310 ,0,0,1.,4.8,0.,4.8,0.,4.8,0.,4.8
1979-03-08 22:23:24.110 ,0,0,2.,4.8,0.,4.8,0.,4.8,0.,4.8
1979-03-08 22:23:28.910 ,0,0,3.,4.8,0.,4.8,0.,4.8,0.,4.8
1979-03-08 22:23:33.110 ,0,0,0.,4.8,0.,4.8,0.,4.8,0.,4.8
1979-03-08 22:23:37.910 ,0,0,2.,4.8,0.,4.8,0.,4.8,0.,4.8
1979-03-08 22:23:42.710 ,0,0,3.,4.8,0.,4.8,0.,4.8,0.,4.8
1979-03-08 22:23:47.510 ,0,0,0.,4.8,0.,4.8,0.,4.8,0.,4.8
1979-03-08 22:23:52.310 ,0,0,2.,4.8,0.,4.8,0.,4.8,0.,4.8
1979-03-08 22:23:57.110 ,1,0,0.,4.8,0.,4.8,0.,4.8,0.,4.8
1979-03-08 22:24:01.910 ,1,0,0.,4.8,0.,4.8,0.,4.8,0.,4.8
1979-03-08 22:24:06.710 ,1,0,1.,4.8,0.,4.8,0.,4.8,0.,4.8
1979-03-08 22:24:11.510 ,1,0,0.,4.8,0.,4.8,0.,4.8,0.,4.8
1979-03-08 22:24:16.310 ,1,0,0.,4.8,0.,4.8,0.,4.8,0.,4.8
1979-03-08 22:24:21.110 ,2,0,0.,4.8,0.,4.8,0.,4.8,0.,4.8
1979-03-08 22:24:25.910 ,2,0,2.,4.8,0.,4.8,0.,4.8,0.,4.8
1979-03-08 22:24:30.710 ,2,0,1.,4.8,0.,4.8,0.,4.8,0.,4.8
1979-03-08 22:24:35.510 ,2,0,1.,4.8,0.,4.8,0.,4.8,0.,4.8
1979-03-08 22:24:40.310 ,2,0,2.,4.8,0.,4.8,0.,4.8,0.,4.8
1979-03-08 22:24:45.110 ,3,0,2.,4.8,0.,4.8,0.,4.8,0.,4.8
1979-03-08 22:24:49.910 ,3,0,3.,4.8,0.,4.8,0.,4.8,0.,4.8
1979-03-08 22:24:54.710 ,3,0,1.,4.8,0.,4.8,0.,4.8,0.,4.8
1979-03-08 22:24:59.510 ,3,0,1.,4.8,0.,4.8,0.,4.8,0.,4.8
1979-03-08 22:25:04.310 ,3,0,0.,4.8,0.,4.8,0.,4.8,0.,4.8
1979-03-08 22:25:09.110 ,4,0,1.,4.8,0.,4.8,0.,4.8,0.,4.8
1979-03-08 22:25:13.910 ,4,0,1.,4.8,0.,4.8,0.,4.8,0.,4.8
1979-03-08 22:25:18.710 ,4,0,0.,4.8,0.,4.8,0.,4.8,0.,4.8
1979-03-08 22:25:23.510 ,4,0,1.,4.8,0.,4.8,0.,4.8,0.,4.8
1979-03-08 22:25:28.310 ,4,0,1.,4.8,0.,4.8,0.,4.8,0.,4.8
1979-03-08 22:25:33.110 ,5,0,2.,4.8,0.,4.8,0.,4.8,0.,4.8
1979-03-08 22:25:37.910 ,5,0,2.,4.8,0.,4.8,0.,4.8,0.,4.8
1979-03-08 22:25:42.710 ,5,0,0.,4.8,0.,4.8,0.,4.8,0.,4.8
1979-03-08 22:25:47.510 ,5,0,2.,4.8,0.,4.8,0.,4.8,0.,4.8
1979-03-08 22:25:52.310 ,5,0,1.,4.8,0.,4.8,0.,4.8,0.,4.8
1979-03-08 22:25:57.110 ,6,0,2.,4.8,0.,4.8,0.,4.8,0.,4.8
1979-03-08 22:26:01.910 ,6,0,3.,4.8,0.,4.8,0.,4.8,0.,4.8
1979-03-08 22:26:06.710 ,6,0,0.,4.8,0.,4.8,0.,4.8,1.,4.8
1979-03-08 22:26:11.510 ,6,0,3.,4.8,0.,4.8,0.,4.8,0.,4.8
1979-03-08 22:26:16.310 ,6,0,0.,4.8,0.,4.8,0.,4.8,0.,4.8
1979-03-08 22:26:21.110 ,7,0,0.,4.8,0.,4.8,0.,4.8,0.,4.8
1979-03-08 22:26:25.910 ,7,0,5.,4.8,0.,4.8,0.,4.8,0.,4.8
1979-03-08 22:26:30.710 ,7,0,0.,4.8,0.,4.8,0.,4.8,0.,4.8
1979-03-08 22:26:35.510 ,7,0,1.,4.8,0.,4.8,0.,4.8,0.,4.8
1979-03-08 22:26:40.310 ,7,0,0.,4.8,0.,4.8,0.,4.8,0.,4.8
1979-03-08 22:26:45.110 ,7,0,0.,4.8,0.,4.8,0.,4.8,0.,4.8
1979-03-08 22:26:49.910 ,7,0,0.,4.8,0.,4.8,0.,4.8,0.,4.8
1979-03-08 22:26:54.710 ,7,0,0.,4.8,0.,4.8,0.,4.8,0.,4.8
1979-03-08 22:26:59.510 ,7,0,0.,4.8,0.,4.8,0.,4.8,0.,4.8
1979-03-08 22:27:04.310 ,7,0,0.,4.8,0.,4.8,0.,4.8,0.,4.8
1979-03-08 22:27:09.110 ,6,0,0.,4.8,0.,4.8,0.,4.8,0.,4.8
1979-03-08 22:27:13.910 ,6,0,0.,4.8,0.,4.8,0.,4.8,0.,4.8
1979-03-08 22:27:18.710 ,6,0,1.,4.8,0.,4.8,0.,4.8,0.,4.8
1979-03-08 22:27:23.510 ,6,0,1.,4.8,0.,4.8,0.,4.8,0.,4.8
1979-03-08 22:27:28.310 ,6,0,3.,4.8,0.,4.8,0.,4.8,0.,4.8
1979-03-08 22:27:33.110 ,5,0,0.,4.8,0.,4.8,0.,4.8,0.,4.8
1979-03-08 22:27:37.910 ,5,0,0.,4.8,0.,4.8,0.,4.8,0.,4.8
1979-03-08 22:27:42.710 ,5,0,2.,4.8,0.,4.8,0.,4.8,0.,4.8
1979-03-08 22:27:47.510 ,5,0,3.,4.8,0.,4.8,0.,4.8,0.,4.8
1979-03-08 22:27:52.310 ,5,0,3.,4.8,0.,4.8,0.,4.8,0.,4.8
1979-03-08 22:27:57.110 ,4,0,2.,4.8,0.,4.8,0.,4.8,0.,4.8
1979-03-08 22:28:01.910 ,4,0,2.,4.8,0.,4.8,0.,4.8,0.,4.8
1979-03-08 22:28:06.710 ,4,0,1.,4.8,0.,4.8,0.,4.8,0.,4.8
1979-03-08 22:28:11.510 ,4,0,0.,4.8,0.,4.8,0.,4.8,0.,4.8
1979-03-08 22:28:16.310 ,4,0,0.,4.8,0.,4.8,0.,4.8,0.,4.8
1979-03-08 22:28:21.110 ,3,0,1.,4.8,0.,4.8,0.,4.8,0.,4.8
1979-03-08 22:28:25.910 ,3,0,1.,4.8,0.,4.8,0.,4.8,0.,4.8
1979-03-08 22:28:30.710 ,3,0,2.,4.8,0.,4.8,0.,4.8,0.,4.8
1979-03-08 22:28:35.510 ,3,0,2.,4.8,0.,4.8,0.,4.8,0.,4.8
1979-03-08 22:28:40.310 ,3,0,2.,4.8,0.,4.8,0.,4.8,0.,4.8
1979-03-08 22:28:45.110 ,2,0,3.,4.8,0.,4.8,0.,4.8,0.,4.8
1979-03-08 22:28:49.910 ,2,0,2.,4.8,0.,4.8,0.,4.8,0.,4.8
1979-03-08 22:28:54.710 ,2,0,3.,4.8,0.,4.8,0.,4.8,0.,4.8
1979-03-08 22:28:59.510 ,2,0,3.,4.8,0.,4.8,0.,4.8,0.,4.8
1979-03-08 22:29:04.310 ,2,0,3.,4.8,0.,4.8,0.,4.8,0.,4.8
1979-03-08 22:29:09.110 ,1,0,4.,4.8,0.,4.8,0.,4.8,0.,4.8
1979-03-08 22:29:13.910 ,1,0,1.,4.8,0.,4.8,0.,4.8,1.,4.8
1979-03-08 22:29:18.710 ,1,0,2.,4.8,0.,4.8,0.,4.8,0.,4.8
1979-03-08 22:29:23.510 ,1,0,0.,4.8,0.,4.8,0.,4.8,0.,4.8
1979-03-08 22:29:28.310 ,1,0,0.,4.8,0.,4.8,0.,4.8,0.,4.8
1979-03-08 22:29:33.110 ,0,0,1.,4.8,0.,4.8,0.,4.8,0.,4.8
1979-03-08 22:29:37.910 ,0,0,2.,4.8,0.,4.8,0.,4.8,0.,4.8
1979-03-08 22:29:42.710 ,0,0,0.,4.8,0.,4.8,0.,4.8,0.,4.8
1979-03-08 22:29:47.510 ,0,0,2.,4.8,0.,4.8,0.,4.8,0.,4.8
1979-03-08 22:29:52.310 ,0,0,1.,4.8,0.,4.8,0.,4.8,0.,4.8
1979-03-08 22:29:57.110 ,0,0,4.,4.8,0.,4.8,0.,4.8,0.,4.8
1979-03-08 22:30:01.910 ,0,0,0.,4.8,0.,4.8,0.,4.8,0.,4.8
1979-03-08 22:30:06.710 ,0,0,0.,4.8,0.,4.8,0.,4.8,0.,4.8
1979-03-08 22:30:11.510 ,0,0,1.,4.8,0.,4.8,0.,4.8,0.,4.8
1979-03-08 22:30:16.310 ,0,0,0.,4.8,0.,4.8,0.,4.8,0.,4.8
1979-03-08 22:30:21.110 ,1,0,1.,4.8,0.,4.8,0.,4.8,0.,4.8
1979-03-08 22:30:25.910 ,1,0,2.,4.8,0.,4.8,0.,4.8,0.,4.8
1979-03-08 22:30:30.710 ,1,0,2.,4.8,0.,4.8,0.,4.8,0.,4.8
1979-03-08 22:30:35.510 ,1,0,0.,4.8,0.,4.8,0.,4.8,0.,4.8
1979-03-08 22:30:40.310 ,1,0,0.,4.8,0.,4.8,0.,4.8,0.,4.8
1979-03-08 22:30:45.110 ,2,0,0.,4.8,0.,4.8,0.,4.8,0.,4.8
1979-03-08 22:30:49.910 ,2,0,2.,4.8,0.,4.8,0.,4.8,0.,4.8
1979-03-08 22:30:54.710 ,2,0,1.,4.8,0.,4.8,0.,4.8,0.,4.8
1979-03-08 22:30:59.510 ,2,0,2.,4.8,0.,4.8,0.,4.8,0.,4.8
1979-03-08 22:31:04.310 ,2,0,2.,4.8,0.,4.8,0.,4.8,0.,4.8
1979-03-08 22:31:09.110 ,3,0,0.,4.8,0.,4.8,0.,4.8,0.,4.8
1979-03-08 22:31:13.910 ,3,0,4.,4.8,0.,4.8,0.,4.8,0.,4.8
1979-03-08 22:31:18.710 ,3,0,1.,4.8,0.,4.8,0.,4.8,0.,4.8
1979-03-08 22:31:23.510 ,3,0,3.,4.8,0.,4.8,0.,4.8,0.,4.8
1979-03-08 22:31:28.310 ,3,0,3.,4.8,0.,4.8,0.,4.8,1.,4.8
1979-03-08 22:31:33.110 ,4,0,3.,4.8,0.,4.8,0.,4.8,0.,4.8
1979-03-08 22:31:37.910 ,4,0,0.,4.8,0.,4.8,0.,4.8,0.,4.8
1979-03-08 22:31:42.710 ,4,0,1.,4.8,0.,4.8,0.,4.8,0.,4.8
1979-03-08 22:31:47.510 ,4,0,2.,4.8,0.,4.8,0.,4.8,0.,4.8
1979-03-08 22:31:52.310 ,4,0,2.,4.8,0.,4.8,0.,4.8,0.,4.8
1979-03-08 22:31:57.110 ,5,0,1.,4.8,0.,4.8,0.,4.8,0.,4.8
1979-03-08 22:32:01.910 ,5,0,2.,4.8,0.,4.8,0.,4.8,0.,4.8
1979-03-08 22:32:06.710 ,5,0,1.,4.8,0.,4.8,0.,4.8,0.,4.8
1979-03-08 22:32:11.510 ,5,0,1.,4.8,0.,4.8,0.,4.8,0.,4.8
1979-03-08 22:32:16.310 ,5,0,1.,4.8,0.,4.8,0.,4.8,0.,4.8
1979-03-08 22:32:21.110 ,6,0,1.,4.8,0.,4.8,0.,4.8,0.,4.8
1979-03-08 22:32:25.910 ,6,0,2.,4.8,0.,4.8,0.,4.8,1.,4.8
1979-03-08 22:32:30.710 ,6,0,0.,4.8,0.,4.8,0.,4.8,0.,4.8
1979-03-08 22:32:35.510 ,6,0,2.,4.8,0.,4.8,0.,4.8,0.,4.8
1979-03-08 22:32:40.310 ,6,0,0.,4.8,0.,4.8,0.,4.8,0.,4.8
1979-03-08 22:32:45.110 ,7,0,0.,4.8,0.,4.8,0.,4.8,0.,4.8
1979-03-08 22:32:49.910 ,7,0,2.,4.8,0.,4.8,0.,4.8,0.,4.8
1979-03-08 22:32:54.710 ,7,0,0.,4.8,0.,4.8,0.,4.8,0.,4.8
1979-03-08 22:32:59.510 ,7,0,0.,4.8,0.,4.8,0.,4.8,0.,4.8
1979-03-08 22:33:04.310 ,7,0,0.,4.8,0.,4.8,0.,4.8,0.,4.8
1979-03-08 22:33:09.110 ,7,0,0.,4.8,0.,4.8,0.,4.8,0.,4.8
1979-03-08 22:33:13.910 ,7,0,0.,4.8,0.,4.8,0.,4.8,0.,4.8
1979-03-08 22:33:18.710 ,7,0,0.,4.8,0.,4.8,0.,4.8,0.,4.8
1979-03-08 22:33:23.510 ,7,0,0.,4.8,0.,4.8,0.,4.8,0.,4.8
1979-03-08 22:33:28.310 ,7,0,0.,4.8,0.,4.8,0.,4.8,0.,4.8
1979-03-08 22:33:33.110 ,6,0,0.,4.8,0.,4.8,0.,4.8,0.,4.8
1979-03-08 22:33:37.910 ,6,0,0.,4.8,0.,4.8,0.,4.8,0.,4.8
1979-03-08 22:33:42.710 ,6,0,4.,4.8,0.,4.8,0.,4.8,0.,4.8
1979-03-08 22:33:47.510 ,6,0,1.,4.8,0.,4.8,0.,4.8,0.,4.8
1979-03-08 22:33:52.310 ,6,0,1.,4.8,0.,4.8,0.,4.8,0.,4.8
1979-03-08 22:33:57.110 ,5,0,0.,4.8,0.,4.8,0.,4.8,0.,4.8
1979-03-08 22:34:01.910 ,5,0,3.,4.8,0.,4.8,0.,4.8,0.,4.8
1979-03-08 22:34:06.710 ,5,0,2.,4.8,0.,4.8,0.,4.8,0.,4.8
1979-03-08 22:34:11.510 ,5,0,0.,4.8,0.,4.8,0.,4.8,0.,4.8
1979-03-08 22:34:16.310 ,5,0,3.,4.8,0.,4.8,0.,4.8,0.,4.8
1979-03-08 22:34:21.110 ,4,0,1.,4.8,0.,4.8,0.,4.8,0.,4.8
1979-03-08 22:34:25.910 ,4,0,2.,4.8,0.,4.8,0.,4.8,0.,4.8
1979-03-08 22:34:30.710 ,4,0,1.,4.8,0.,4.8,0.,4.8,0.,4.8
1979-03-08 22:34:35.510 ,4,0,5.,4.8,0.,4.8,0.,4.8,0.,4.8
1979-03-08 22:34:40.310 ,4,0,4.,4.8,0.,4.8,0.,4.8,0.,4.8
1979-03-08 22:34:45.110 ,3,0,2.,4.8,0.,4.8,0.,4.8,0.,4.8
1979-03-08 22:34:49.910 ,3,0,1.,4.8,0.,4.8,0.,4.8,0.,4.8
1979-03-08 22:34:54.710 ,3,0,0.,4.8,0.,4.8,0.,4.8,0.,4.8
1979-03-08 22:34:59.510 ,3,0,0.,4.8,0.,4.8,0.,4.8,0.,4.8
1979-03-08 22:35:04.310 ,3,0,2.,4.8,0.,4.8,0.,4.8,1.,4.8
1979-03-08 22:35:09.110 ,2,0,2.,4.8,0.,4.8,0.,4.8,0.,4.8
1979-03-08 22:35:13.910 ,2,0,2.,4.8,0.,4.8,0.,4.8,0.,4.8
1979-03-08 22:35:18.710 ,2,0,1.,4.8,0.,4.8,0.,4.8,0.,4.8
1979-03-08 22:35:23.510 ,2,0,1.,4.8,0.,4.8,0.,4.8,0.,4.8
1979-03-08 22:35:28.310 ,2,0,3.,4.8,0.,4.8,0.,4.8,0.,4.8
1979-03-08 22:35:33.110 ,1,0,3.,4.8,0.,4.8,0.,4.8,0.,4.8
1979-03-08 22:35:37.910 ,1,0,0.,4.8,0.,4.8,0.,4.8,0.,4.8
1979-03-08 22:35:42.710 ,1,0,2.,4.8,0.,4.8,0.,4.8,0.,4.8
1979-03-08 22:35:47.510 ,1,0,0.,4.8,0.,4.8,0.,4.8,0.,4.8
1979-03-08 22:35:52.310 ,1,0,4.,4.8,0.,4.8,0.,4.8,0.,4.8
1979-03-08 22:35:57.110 ,0,0,2.,4.8,0.,4.8,0.,4.8,0.,4.8
1979-03-08 22:36:01.910 ,0,0,1.,4.8,0.,4.8,0.,4.8,0.,4.8
1979-03-08 22:36:06.710 ,0,0,1.,4.8,0.,4.8,0.,4.8,0.,4.8
1979-03-08 22:36:11.510 ,0,0,1.,4.8,0.,4.8,0.,4.8,0.,4.8
1979-03-08 22:36:16.310 ,0,0,1.,4.8,0.,4.8,0.,4.8,0.,4.8
1979-03-08 22:36:21.110 ,0,0,0.,4.8,0.,4.8,0.,4.8,0.,4.8
1979-03-08 22:36:25.910 ,0,0,0.,4.8,0.,4.8,0.,4.8,0.,4.8
1979-03-08 22:36:30.710 ,0,0,1.,4.8,0.,4.8,0.,4.8,0.,4.8
1979-03-08 22:36:35.510 ,0,0,0.,4.8,0.,4.8,0.,4.8,0.,4.8
1979-03-08 22:36:40.310 ,0,0,0.,4.8,0.,4.8,0.,4.8,0.,4.8
1979-03-08 22:36:45.110 ,1,0,3.,4.8,0.,4.8,0.,4.8,0.,4.8
1979-03-08 22:36:49.910 ,1,0,0.,4.8,0.,4.8,0.,4.8,0.,4.8
1979-03-08 22:36:54.710 ,1,0,0.,4.8,0.,4.8,0.,4.8,0.,4.8
1979-03-08 22:36:59.510 ,1,0,1.,4.8,0.,4.8,0.,4.8,0.,4.8
1979-03-08 22:37:04.310 ,1,0,4.,4.8,0.,4.8,0.,4.8,0.,4.8
1979-03-08 22:37:09.110 ,2,0,3.,4.8,0.,4.8,0.,4.8,0.,4.8
1979-03-08 22:37:13.910 ,2,0,1.,4.8,0.,4.8,0.,4.8,0.,4.8
1979-03-08 22:37:18.710 ,2,0,3.,4.8,0.,4.8,0.,4.8,0.,4.8
1979-03-08 22:37:23.510 ,2,0,1.,4.8,0.,4.8,0.,4.8,0.,4.8
1979-03-08 22:37:28.310 ,2,0,4.,4.8,0.,4.8,0.,4.8,0.,4.8
1979-03-08 22:37:33.110 ,3,0,1.,4.8,0.,4.8,0.,4.8,0.,4.8
1979-03-08 22:37:37.910 ,3,0,0.,4.8,0.,4.8,0.,4.8,1.,4.8
1979-03-08 22:37:42.710 ,3,0,0.,4.8,0.,4.8,0.,4.8,0.,4.8
1979-03-08 22:37:47.510 ,3,0,1.,4.8,0.,4.8,0.,4.8,0.,4.8
1979-03-08 22:37:52.310 ,3,0,1.,4.8,0.,4.8,0.,4.8,0.,4.8
1979-03-08 22:37:57.110 ,4,0,1.,4.8,0.,4.8,0.,4.8,1.,4.8
1979-03-08 22:38:01.910 ,4,0,0.,4.8,0.,4.8,0.,4.8,0.,4.8
1979-03-08 22:38:06.710 ,4,0,0.,4.8,0.,4.8,0.,4.8,0.,4.8
1979-03-08 22:38:11.510 ,4,0,0.,4.8,0.,4.8,0.,4.8,0.,4.8
1979-03-08 22:38:16.310 ,4,0,0.,4.8,0.,4.8,0.,4.8,0.,4.8
1979-03-08 22:38:21.110 ,5,0,2.,4.8,0.,4.8,0.,4.8,0.,4.8
1979-03-08 22:38:25.910 ,5,0,2.,4.8,0.,4.8,0.,4.8,1.,4.8
1979-03-08 22:38:30.710 ,5,0,2.,4.8,0.,4.8,0.,4.8,0.,4.8
1979-03-08 22:38:35.510 ,5,0,2.,4.8,0.,4.8,0.,4.8,0.,4.8
1979-03-08 22:38:40.310 ,5,0,1.,4.8,0.,4.8,0.,4.8,0.,4.8
1979-03-08 22:38:45.110 ,6,0,2.,4.8,0.,4.8,0.,4.8,0.,4.8
1979-03-08 22:38:49.910 ,6,0,0.,4.8,0.,4.8,0.,4.8,0.,4.8
1979-03-08 22:38:54.710 ,6,0,2.,4.8,0.,4.8,0.,4.8,0.,4.8
1979-03-08 22:38:59.510 ,6,0,4.,4.8,0.,4.8,0.,4.8,0.,4.8
1979-03-08 22:39:04.310 ,6,0,5.,4.8,0.,4.8,0.,4.8,0.,4.8
1979-03-08 22:39:09.110 ,7,0,0.,4.8,0.,4.8,0.,4.8,0.,4.8
1979-03-08 22:39:13.910 ,7,0,2.,4.8,0.,4.8,0.,4.8,0.,4.8
1979-03-08 22:39:18.710 ,7,0,1.,4.8,0.,4.8,0.,4.8,0.,4.8
1979-03-08 22:39:23.510 ,7,0,0.,4.8,0.,4.8,0.,4.8,0.,4.8
1979-03-08 22:39:28.310 ,7,0,0.,4.8,0.,4.8,0.,4.8,0.,4.8
1979-03-08 22:42:21.110 ,0,0,1.,4.8,0.,4.8,0.,4.8,0.,4.8
1979-03-08 22:42:25.910 ,0,0,0.,4.8,0.,4.8,0.,4.8,0.,4.8
1979-03-08 22:42:30.710 ,0,0,0.,4.8,0.,4.8,0.,4.8,0.,4.8
1979-03-08 22:42:35.510 ,0,0,0.,4.8,0.,4.8,0.,4.8,0.,4.8
1979-03-08 22:42:40.310 ,0,0,1.,4.8,0.,4.8,0.,4.8,0.,4.8
1979-03-08 22:42:45.110 ,0,0,2.,4.8,0.,4.8,0.,4.8,0.,4.8
1979-03-08 22:42:49.910 ,0,0,3.,4.8,0.,4.8,0.,4.8,0.,4.8
1979-03-08 22:42:54.710 ,0,0,1.,4.8,0.,4.8,0.,4.8,0.,4.8
1979-03-08 22:42:59.510 ,0,0,2.,4.8,0.,4.8,0.,4.8,0.,4.8
1979-03-08 22:43:04.310 ,0,0,2.,4.8,0.,4.8,0.,4.8,0.,4.8
1979-03-08 22:43:09.110 ,1,0,0.,4.8,0.,4.8,0.,4.8,0.,4.8
1979-03-08 22:43:13.910 ,1,0,1.,4.8,0.,4.8,0.,4.8,0.,4.8
1979-03-08 22:43:18.710 ,1,0,1.,4.8,0.,4.8,0.,4.8,0.,4.8
1979-03-08 22:43:23.510 ,1,0,0.,4.8,0.,4.8,0.,4.8,0.,4.8
1979-03-08 22:43:28.310 ,1,0,2.,4.8,0.,4.8,0.,4.8,0.,4.8
1979-03-08 22:43:33.110 ,2,0,3.,4.8,0.,4.8,0.,4.8,0.,4.8
1979-03-08 22:43:37.910 ,2,0,1.,4.8,0.,4.8,0.,4.8,0.,4.8
1979-03-08 22:43:42.710 ,2,0,1.,4.8,0.,4.8,0.,4.8,0.,4.8
1979-03-08 22:43:47.510 ,2,0,0.,4.8,0.,4.8,0.,4.8,0.,4.8
1979-03-08 22:43:52.310 ,2,0,0.,4.8,0.,4.8,0.,4.8,0.,4.8
1979-03-08 22:43:57.110 ,3,0,3.,4.8,0.,4.8,0.,4.8,0.,4.8
1979-03-08 22:44:01.910 ,3,0,2.,4.8,0.,4.8,0.,4.8,0.,4.8
1979-03-08 22:44:06.710 ,3,0,3.,4.8,0.,4.8,0.,4.8,1.,4.8
1979-03-08 22:44:11.510 ,3,0,0.,4.8,0.,4.8,0.,4.8,0.,4.8
1979-03-08 22:44:16.310 ,3,0,3.,4.8,0.,4.8,0.,4.8,0.,4.8
1979-03-08 22:44:21.110 ,4,0,0.,4.8,0.,4.8,0.,4.8,0.,4.8
1979-03-08 22:44:25.910 ,4,0,0.,4.8,0.,4.8,0.,4.8,0.,4.8
1979-03-08 22:44:30.710 ,4,0,2.,4.8,0.,4.8,0.,4.8,0.,4.8
1979-03-08 22:44:35.510 ,4,0,0.,4.8,0.,4.8,0.,4.8,0.,4.8
1979-03-08 22:44:40.310 ,4,0,0.,4.8,0.,4.8,0.,4.8,0.,4.8
1979-03-08 22:44:45.110 ,5,0,1.,4.8,0.,4.8,0.,4.8,0.,4.8
1979-03-08 22:44:49.910 ,5,0,0.,4.8,0.,4.8,0.,4.8,0.,4.8
1979-03-08 22:44:54.710 ,5,0,0.,4.8,0.,4.8,0.,4.8,0.,4.8
1979-03-08 22:44:59.510 ,5,0,1.,4.8,0.,4.8,0.,4.8,0.,4.8
1979-03-08 22:45:04.310 ,5,0,0.,4.8,0.,4.8,0.,4.8,0.,4.8
1979-03-08 22:55:09.110 ,0,0,2.,4.8,0.,4.8,0.,4.8,0.,4.8
1979-03-08 22:55:13.910 ,0,0,1.,4.8,0.,4.8,0.,4.8,0.,4.8
1979-03-08 22:55:18.710 ,0,0,2.,4.8,0.,4.8,0.,4.8,0.,4.8
1979-03-08 22:55:23.510 ,0,0,1.,4.8,0.,4.8,0.,4.8,0.,4.8
1979-03-08 22:55:28.310 ,0,0,1.,4.8,0.,4.8,0.,4.8,0.,4.8
1979-03-08 22:55:33.110 ,0,0,1.,4.8,0.,4.8,0.,4.8,0.,4.8
1979-03-08 22:55:37.910 ,0,0,1.,4.8,0.,4.8,0.,4.8,0.,4.8
1979-03-08 22:55:42.710 ,0,0,1.,4.8,0.,4.8,0.,4.8,0.,4.8
1979-03-08 22:55:47.510 ,0,0,2.,4.8,0.,4.8,0.,4.8,0.,4.8
1979-03-08 22:55:52.310 ,0,0,1.,4.8,0.,4.8,0.,4.8,0.,4.8
1979-03-08 22:55:57.110 ,1,0,3.,4.8,0.,4.8,0.,4.8,0.,4.8
1979-03-08 22:56:01.910 ,1,0,1.,4.8,0.,4.8,0.,4.8,0.,4.8
1979-03-08 22:56:06.710 ,1,0,3.,4.8,0.,4.8,0.,4.8,0.,4.8
1979-03-08 22:56:11.510 ,1,0,0.,4.8,0.,4.8,0.,4.8,0.,4.8
1979-03-08 22:56:16.310 ,1,0,3.,4.8,0.,4.8,0.,4.8,0.,4.8
1979-03-08 22:56:21.110 ,2,0,0.,4.8,0.,4.8,0.,4.8,0.,4.8
1979-03-08 22:56:25.910 ,2,0,1.,4.8,0.,4.8,0.,4.8,0.,4.8
1979-03-08 22:56:30.710 ,2,0,1.,4.8,0.,4.8,0.,4.8,0.,4.8
1979-03-08 22:56:35.510 ,2,0,0.,4.8,0.,4.8,0.,4.8,0.,4.8
1979-03-08 22:56:40.310 ,2,0,3.,4.8,0.,4.8,0.,4.8,0.,4.8
1979-03-08 22:56:45.110 ,3,0,4.,4.8,0.,4.8,0.,4.8,0.,4.8
1979-03-08 22:56:49.910 ,3,0,0.,4.8,0.,4.8,0.,4.8,1.,4.8
1979-03-08 22:56:54.710 ,3,0,0.,4.8,0.,4.8,0.,4.8,0.,4.8
1979-03-08 22:56:59.510 ,3,0,0.,4.8,0.,4.8,0.,4.8,0.,4.8
1979-03-08 22:57:04.310 ,3,0,0.,4.8,0.,4.8,0.,4.8,0.,4.8
1979-03-08 22:57:09.110 ,4,0,0.,4.8,0.,4.8,0.,4.8,0.,4.8
1979-03-08 22:57:13.910 ,4,0,0.,4.8,0.,4.8,0.,4.8,0.,4.8
1979-03-08 22:57:18.710 ,4,0,1.,4.8,0.,4.8,0.,4.8,0.,4.8
1979-03-08 22:57:23.510 ,4,0,0.,4.8,0.,4.8,0.,4.8,0.,4.8
1979-03-08 22:57:28.310 ,4,0,1.,4.8,0.,4.8,0.,4.8,1.,4.8
1979-03-08 22:57:33.110 ,5,0,0.,4.8,0.,4.8,0.,4.8,0.,4.8
1979-03-08 22:57:37.910 ,5,0,1.,4.8,0.,4.8,0.,4.8,0.,4.8
1979-03-08 22:57:42.710 ,5,0,2.,4.8,0.,4.8,0.,4.8,0.,4.8
1979-03-08 22:57:47.510 ,5,0,3.,4.8,0.,4.8,0.,4.8,0.,4.8
1979-03-08 22:57:52.310 ,5,0,2.,4.8,0.,4.8,0.,4.8,0.,4.8
1979-03-08 22:57:57.110 ,6,0,1.,4.8,0.,4.8,0.,4.8,0.,4.8
1979-03-08 22:58:01.910 ,6,0,1.,4.8,0.,4.8,0.,4.8,0.,4.8
1979-03-08 22:58:06.710 ,6,0,0.,4.8,0.,4.8,0.,4.8,0.,4.8
1979-03-08 22:58:11.510 ,6,0,1.,4.8,0.,4.8,0.,4.8,0.,4.8
1979-03-08 22:58:16.310 ,6,0,0.,4.8,0.,4.8,0.,4.8,0.,4.8
1979-03-08 22:58:21.110 ,7,0,0.,4.8,0.,4.8,0.,4.8,0.,4.8
1979-03-08 22:58:25.910 ,7,0,1.,4.8,0.,4.8,0.,4.8,0.,4.8
1979-03-08 22:58:30.710 ,7,0,0.,4.8,0.,4.8,0.,4.8,0.,4.8
1979-03-08 22:58:35.510 ,7,0,0.,4.8,0.,4.8,0.,4.8,0.,4.8
1979-03-08 22:58:40.310 ,7,0,0.,4.8,0.,4.8,0.,4.8,0.,4.8
1979-03-08 22:58:45.110 ,7,0,0.,4.8,0.,4.8,0.,4.8,0.,4.8
1979-03-08 22:58:49.910 ,7,0,0.,4.8,0.,4.8,0.,4.8,0.,4.8
1979-03-08 22:58:54.710 ,7,0,1.,4.8,0.,4.8,0.,4.8,0.,4.8
1979-03-08 22:58:59.510 ,7,0,2.,4.8,0.,4.8,0.,4.8,0.,4.8
1979-03-08 22:59:04.310 ,7,0,0.,4.8,0.,4.8,0.,4.8,0.,4.8
1979-03-08 22:59:09.110 ,6,0,0.,4.8,0.,4.8,0.,4.8,0.,4.8
1979-03-08 22:59:13.910 ,6,0,1.,4.8,0.,4.8,0.,4.8,0.,4.8
1979-03-08 22:59:18.710 ,6,0,2.,4.8,0.,4.8,0.,4.8,0.,4.8
1979-03-08 22:59:23.510 ,6,0,0.,4.8,0.,4.8,0.,4.8,0.,4.8
1979-03-08 22:59:28.310 ,6,0,2.,4.8,0.,4.8,0.,4.8,0.,4.8
1979-03-08 22:59:33.110 ,5,0,2.,4.8,0.,4.8,0.,4.8,0.,4.8
1979-03-08 22:59:37.910 ,5,0,3.,4.8,0.,4.8,0.,4.8,0.,4.8
1979-03-08 22:59:42.710 ,5,0,0.,4.8,0.,4.8,0.,4.8,0.,4.8
1979-03-08 22:59:47.510 ,5,0,2.,4.8,0.,4.8,0.,4.8,0.,4.8
1979-03-08 22:59:52.310 ,5,0,1.,4.8,0.,4.8,0.,4.8,0.,4.8
1979-03-08 22:59:57.110 ,4,0,2.,4.8,0.,4.8,0.,4.8,0.,4.8
1979-03-08 23:00:01.910 ,4,0,1.,4.8,0.,4.8,0.,4.8,1.,4.8
1979-03-08 23:00:06.710 ,4,0,0.,4.8,0.,4.8,0.,4.8,0.,4.8
1979-03-08 23:00:11.510 ,4,0,3.,4.8,0.,4.8,0.,4.8,0.,4.8
1979-03-08 23:00:16.310 ,4,0,3.,4.8,0.,4.8,0.,4.8,0.,4.8
1979-03-08 23:00:21.110 ,3,0,2.,4.8,0.,4.8,0.,4.8,0.,4.8
1979-03-08 23:00:25.910 ,3,0,0.,4.8,0.,4.8,0.,4.8,0.,4.8
1979-03-08 23:00:30.710 ,3,0,2.,4.8,0.,4.8,0.,4.8,0.,4.8
1979-03-08 23:00:35.510 ,3,0,2.,4.8,0.,4.8,0.,4.8,0.,4.8
1979-03-08 23:00:40.310 ,3,0,0.,4.8,0.,4.8,0.,4.8,0.,4.8
1979-03-08 23:00:45.110 ,2,0,0.,4.8,0.,4.8,0.,4.8,0.,4.8
1979-03-08 23:00:49.910 ,2,0,0.,4.8,0.,4.8,0.,4.8,0.,4.8
1979-03-08 23:00:54.710 ,2,0,1.,4.8,0.,4.8,0.,4.8,0.,4.8
1979-03-08 23:00:59.510 ,2,0,3.,4.8,0.,4.8,0.,4.8,0.,4.8
1979-03-08 23:01:04.310 ,2,0,1.,4.8,0.,4.8,0.,4.8,0.,4.8
1979-03-08 23:01:09.110 ,1,0,1.,4.8,0.,4.8,0.,4.8,0.,4.8
1979-03-08 23:01:13.910 ,1,0,0.,4.8,0.,4.8,0.,4.8,0.,4.8
1979-03-08 23:01:18.710 ,1,0,0.,4.8,0.,4.8,0.,4.8,0.,4.8
1979-03-08 23:01:23.510 ,1,0,0.,4.8,0.,4.8,0.,4.8,0.,4.8
1979-03-08 23:01:28.310 ,1,0,0.,4.8,0.,4.8,0.,4.8,0.,4.8
1979-03-08 23:01:33.110 ,0,0,2.,4.8,0.,4.8,0.,4.8,0.,4.8
1979-03-08 23:01:37.910 ,0,0,1.,4.8,0.,4.8,0.,4.8,0.,4.8
1979-03-08 23:01:42.710 ,0,0,0.,4.8,0.,4.8,0.,4.8,0.,4.8
1979-03-08 23:01:47.510 ,0,0,1.,4.8,0.,4.8,0.,4.8,0.,4.8
1979-03-08 23:01:52.310 ,0,0,1.,4.8,0.,4.8,0.,4.8,0.,4.8
1979-03-08 23:01:57.110 ,0,0,0.,4.8,0.,4.8,0.,4.8,0.,4.8
1979-03-08 23:02:01.910 ,0,0,0.,4.8,0.,4.8,0.,4.8,0.,4.8
1979-03-08 23:02:06.710 ,0,0,0.,4.8,0.,4.8,0.,4.8,0.,4.8
1979-03-08 23:02:11.510 ,0,0,0.,4.8,0.,4.8,0.,4.8,0.,4.8
1979-03-08 23:02:16.310 ,0,0,2.,4.8,0.,4.8,0.,4.8,0.,4.8
1979-03-08 23:02:21.110 ,1,0,3.,4.8,0.,4.8,0.,4.8,1.,4.8
1979-03-08 23:02:25.910 ,1,0,0.,4.8,0.,4.8,0.,4.8,0.,4.8
1979-03-08 23:02:30.710 ,1,0,0.,4.8,0.,4.8,0.,4.8,0.,4.8
1979-03-08 23:02:35.510 ,1,0,1.,4.8,0.,4.8,0.,4.8,0.,4.8
1979-03-08 23:02:40.310 ,1,0,0.,4.8,0.,4.8,0.,4.8,0.,4.8
1979-03-08 23:02:45.110 ,2,0,1.,4.8,0.,4.8,0.,4.8,0.,4.8
1979-03-08 23:02:49.910 ,2,0,1.,4.8,0.,4.8,0.,4.8,0.,4.8
1979-03-08 23:02:54.710 ,2,0,0.,4.8,0.,4.8,0.,4.8,0.,4.8
1979-03-08 23:02:59.510 ,2,0,1.,4.8,0.,4.8,0.,4.8,0.,4.8
1979-03-08 23:03:04.310 ,2,0,0.,4.8,0.,4.8,0.,4.8,0.,4.8
1979-03-08 23:03:09.110 ,3,0,3.,4.8,0.,4.8,0.,4.8,0.,4.8
1979-03-08 23:03:13.910 ,3,0,2.,4.8,0.,4.8,0.,4.8,0.,4.8
1979-03-08 23:03:18.710 ,3,0,1.,4.8,0.,4.8,0.,4.8,1.,4.8
1979-03-08 23:03:23.510 ,3,0,2.,4.8,0.,4.8,0.,4.8,0.,4.8
1979-03-08 23:03:28.310 ,3,0,0.,4.8,0.,4.8,0.,4.8,0.,4.8
1979-03-08 23:03:33.110 ,4,0,0.,4.8,0.,4.8,0.,4.8,0.,4.8
1979-03-08 23:03:37.910 ,4,0,2.,4.8,0.,4.8,0.,4.8,0.,4.8
1979-03-08 23:03:42.710 ,4,0,1.,4.8,0.,4.8,0.,4.8,0.,4.8
1979-03-08 23:03:47.510 ,4,0,0.,4.8,0.,4.8,0.,4.8,0.,4.8
1979-03-08 23:03:52.310 ,4,0,0.,4.8,0.,4.8,0.,4.8,0.,4.8
1979-03-08 23:03:57.110 ,5,0,1.,4.8,0.,4.8,0.,4.8,1.,4.8
1979-03-08 23:04:01.910 ,5,0,1.,4.8,0.,4.8,0.,4.8,0.,4.8
1979-03-08 23:04:06.710 ,5,0,1.,4.8,0.,4.8,0.,4.8,0.,4.8
1979-03-08 23:04:11.510 ,5,0,0.,4.8,0.,4.8,0.,4.8,0.,4.8
1979-03-08 23:04:16.310 ,5,0,1.,4.8,0.,4.8,0.,4.8,0.,4.8
1979-03-08 23:04:21.110 ,6,0,0.,4.8,0.,4.8,0.,4.8,0.,4.8
1979-03-08 23:04:25.910 ,6,0,0.,4.8,0.,4.8,0.,4.8,0.,4.8
1979-03-08 23:04:30.710 ,6,0,0.,4.8,0.,4.8,0.,4.8,0.,4.8
1979-03-08 23:04:35.510 ,6,0,3.,4.8,0.,4.8,0.,4.8,0.,4.8
1979-03-08 23:04:40.310 ,6,0,0.,4.8,0.,4.8,0.,4.8,0.,4.8
1979-03-08 23:04:45.110 ,7,0,3.,4.8,0.,4.8,0.,4.8,0.,4.8
1979-03-08 23:04:49.910 ,7,0,1.,4.8,0.,4.8,0.,4.8,0.,4.8
1979-03-08 23:04:54.710 ,7,0,0.,4.8,0.,4.8,0.,4.8,0.,4.8
1979-03-08 23:04:59.510 ,7,0,1.,4.8,0.,4.8,0.,4.8,0.,4.8
1979-03-08 23:05:04.310 ,7,0,1.,4.8,0.,4.8,0.,4.8,0.,4.8
1979-03-08 23:05:09.110 ,7,0,1.,4.8,0.,4.8,0.,4.8,0.,4.8
1979-03-08 23:05:13.910 ,7,0,1.,4.8,0.,4.8,0.,4.8,0.,4.8
1979-03-08 23:05:18.710 ,7,0,1.,4.8,0.,4.8,0.,4.8,0.,4.8
1979-03-08 23:05:23.510 ,7,0,0.,4.8,0.,4.8,0.,4.8,0.,4.8
1979-03-08 23:05:28.310 ,7,0,0.,4.8,0.,4.8,0.,4.8,0.,4.8
1979-03-08 23:05:33.110 ,6,0,0.,4.8,0.,4.8,0.,4.8,0.,4.8
1979-03-08 23:05:37.910 ,6,0,0.,4.8,0.,4.8,0.,4.8,0.,4.8
1979-03-08 23:05:42.710 ,6,0,1.,4.8,0.,4.8,0.,4.8,1.,4.8
1979-03-08 23:05:47.510 ,6,0,0.,4.8,0.,4.8,0.,4.8,0.,4.8
1979-03-08 23:05:52.310 ,6,0,2.,4.8,0.,4.8,0.,4.8,0.,4.8
1979-03-08 23:05:57.110 ,5,0,1.,4.8,0.,4.8,0.,4.8,0.,4.8
1979-03-08 23:06:01.910 ,5,0,1.,4.8,0.,4.8,0.,4.8,0.,4.8
1979-03-08 23:06:06.710 ,5,0,1.,4.8,0.,4.8,0.,4.8,0.,4.8
1979-03-08 23:06:11.510 ,5,0,1.,4.8,0.,4.8,0.,4.8,0.,4.8
1979-03-08 23:06:16.310 ,5,0,1.,4.8,0.,4.8,0.,4.8,0.,4.8
1979-03-08 23:06:21.110 ,4,0,2.,4.8,0.,4.8,0.,4.8,0.,4.8
1979-03-08 23:06:25.910 ,4,0,3.,4.8,0.,4.8,0.,4.8,0.,4.8
1979-03-08 23:06:30.710 ,4,0,2.,4.8,0.,4.8,0.,4.8,0.,4.8
1979-03-08 23:06:35.510 ,4,0,2.,4.8,0.,4.8,0.,4.8,0.,4.8
1979-03-08 23:06:40.310 ,4,0,0.,4.8,0.,4.8,0.,4.8,0.,4.8
1979-03-08 23:06:45.110 ,3,0,0.,4.8,0.,4.8,0.,4.8,0.,4.8
1979-03-08 23:06:49.910 ,3,0,0.,4.8,0.,4.8,0.,4.8,0.,4.8
1979-03-08 23:06:54.710 ,3,0,2.,4.8,0.,4.8,0.,4.8,0.,4.8
1979-03-08 23:06:59.510 ,3,0,1.,4.8,0.,4.8,0.,4.8,0.,4.8
1979-03-08 23:07:04.310 ,3,0,1.,4.8,0.,4.8,0.,4.8,0.,4.8
1979-03-08 23:07:09.110 ,2,0,1.,4.8,0.,4.8,0.,4.8,0.,4.8
1979-03-08 23:07:13.910 ,2,0,2.,4.8,0.,4.8,0.,4.8,0.,4.8
1979-03-08 23:07:18.710 ,2,0,1.,4.8,0.,4.8,0.,4.8,0.,4.8
1979-03-08 23:07:23.510 ,2,0,0.,4.8,0.,4.8,0.,4.8,0.,4.8
1979-03-08 23:07:28.310 ,2,0,1.,4.8,0.,4.8,0.,4.8,0.,4.8
1979-03-08 23:07:33.110 ,1,0,0.,4.8,0.,4.8,0.,4.8,0.,4.8
1979-03-08 23:07:37.910 ,1,0,2.,4.8,0.,4.8,0.,4.8,0.,4.8
1979-03-08 23:07:42.710 ,1,0,0.,4.8,0.,4.8,0.,4.8,0.,4.8
1979-03-08 23:07:47.510 ,1,0,1.,4.8,0.,4.8,0.,4.8,0.,4.8
1979-03-08 23:07:52.310 ,1,0,1.,4.8,0.,4.8,0.,4.8,0.,4.8
1979-03-08 23:07:57.110 ,0,0,2.,4.8,0.,4.8,0.,4.8,0.,4.8
1979-03-08 23:08:01.910 ,0,0,2.,4.8,0.,4.8,0.,4.8,1.,4.8
1979-03-08 23:08:06.710 ,0,0,0.,4.8,0.,4.8,0.,4.8,0.,4.8
1979-03-08 23:08:11.510 ,0,0,1.,4.8,0.,4.8,0.,4.8,0.,4.8
1979-03-08 23:08:16.310 ,0,0,2.,4.8,0.,4.8,0.,4.8,0.,4.8
1979-03-08 23:08:21.110 ,0,0,1.,4.8,0.,4.8,0.,4.8,0.,4.8
1979-03-08 23:08:25.910 ,0,0,1.,4.8,0.,4.8,0.,4.8,0.,4.8
1979-03-08 23:08:30.710 ,0,0,2.,4.8,0.,4.8,0.,4.8,0.,4.8
1979-03-08 23:08:35.510 ,0,0,1.,4.8,0.,4.8,0.,4.8,0.,4.8
1979-03-08 23:08:40.310 ,0,0,0.,4.8,0.,4.8,0.,4.8,0.,4.8
1979-03-08 23:08:45.110 ,1,0,2.,4.8,0.,4.8,0.,4.8,0.,4.8
1979-03-08 23:08:49.910 ,1,0,0.,4.8,0.,4.8,0.,4.8,0.,4.8